User: anonymous   Login
Location: Unspecified
(0.0000°N, 0.0000°E)
Time: 19:11:40
(UTC+00:00)
Language:

COSMOS-2408 - Orbit

View from above orbital plane
View from above orbital plane
View from above satellite
View from above satellite

Ground track
Ground track

The orbit data is extracted from the following two-line orbital elements,

1 28419U 04037A   24062.50087570  .00000014  00000-0  29078-4 0  9999
2 28419  82.4844 130.0102 0014867 303.7637  56.2028 12.45649287883738
Epoch (UTC): 02 March 2024 12:01:15
Eccentricity: 0.0014867
inclination: 82.4844°
perigee height: 1471 km
apogee height: 1494 km
right ascension of ascending node: 130.0102°
argument of perigee: 303.7637°
revolutions per day: 12.45649287
mean anomaly at epoch: 56.2028°
orbit number at epoch: 88373

The dashed part of the orbit path shows where the satellite is in the earth's shadow,  

DLR